Powrót do katalogu

STARLINK-30531

AktywnyŁącznośćVLEO
NORAD 57998·PAYLOAD·🇺🇸 United States

Wystrzelony Oct 5, 2023 z Cape Canaveral Space Force Station

Loading…

Następne Przeloty (najbliższe 24 godziny)

TLE

ŚwieżeSource: CelesTrak SupGP

Epoka: Sep 15, 2026, 02:09 UTC

1 57998C 23153H   26258.09006944 -.00024831  00000+0 -89914-3 0  2588
2 57998  43.0034  77.3070 0001772 269.2202 106.2712 15.27598420    11

Śledź STARLINK-30531 w czasie rzeczywistym z AllMySat

Download on the App Store